EW5961 Weather Reports


Display with metric or nautical units.
time (UTC)temp
F
wind
direction
speed
MPH
gust
MPH
rain 1hr
in
rain 24hr
in
rain mn
in
humidity
%
barometer
mb
20260503184538 91 350 8.0 15.0 0.00 0.00 0.00 66 1013.5
20260503183037 90 46 9.0 17.0 0.00 0.00 0.00 67 1013.6
20260503181545 90 314 5.0 16.0 0.00 0.00 0.00 68 1013.6
20260503180036 90 346 7.0 16.0 0.00 0.00 0.00 68 1013.9
20260503174534 88 5 9.0 16.0 0.00 0.00 0.00 70 1013.9
20260503173030 89 9 11.0 16.0 0.00 0.00 0.00 71 1014.1
20260503171527 88 277 9.0 17.0 0.00 0.00 0.00 71 1014.4
20260503160119 87 355 8.0 17.0 0.00 0.00 0.00 75 1014.8
20260503081512 81 331 2.0 5.0 0.00 0.00 0.00 82 1011.3
20260503071506 82 40 3.0 6.0 0.00 0.00 0.00 80 1012.1
20260503054610 82 41 4.0 8.0 0.00 0.00 0.00 80 1013.1
20260503053055 83 11 3.0 9.0 0.00 0.00 0.00 80 1013.4
20260503051555 83 84 3.0 5.0 0.00 0.00 0.00 80 1013.8
20260503050154 83 65 3.0 8.0 0.00 0.00 0.00 80 1013.9
20260503044553 83 97 3.0 8.0 0.00 0.00 0.00 79 1013.9
20260503043056 83 89 7.0 11.0 0.00 0.00 0.00 80 1013.8
20260503041550 83 69 5.0 11.0 0.00 0.00 0.00 80 1013.4
20260503040054 83 72 4.0 9.0 0.00 0.00 0.00 79 1013.3
20260503034648 83 42 6.0 12.0 0.00 0.00 0.00 79 1013.0
20260503033044 84 64 6.0 10.0 0.00 0.00 0.00 79 1012.8
20260503031544 84 10 9.0 13.0 0.00 0.00 0.00 79 1012.6
20260503030042 84 49 8.0 13.0 0.00 0.00 0.00 78 1012.5
20260503024541 84 32 10.0 14.0 0.00 0.00 0.00 78 1012.4
20260503023140 84 19 7.0 15.0 0.00 0.00 0.00 78 1012.1
20260503021542 85 58 9.0 14.0 0.00 0.00 0.00 77 1012.1
20260503020039 85 37 10.0 14.0 0.00 0.00 0.00 77 1011.7
20260503014535 85 31 8.0 16.0 0.00 0.00 0.00 77 1011.1
20260503013040 85 355 8.0 14.0 0.00 0.00 0.00 76 1010.6
20260503011531 86 355 8.0 15.0 0.00 0.00 0.00 75 1010.0
20260503010030 86 355 9.0 17.0 0.00 0.00 0.00 73 1010.0
20260503004534 86 355 6.0 14.0 0.00 0.00 0.00 73 1008.8
20260503003042 87 321 8.0 15.0 0.00 0.00 0.00 71 1008.6
20260503001533 88 288 7.0 14.0 0.00 0.00 0.00 70 1008.4
20260503000027 88 290 11.0 17.0 0.00 0.00 0.00 69 1007.7
20260502234537 89 294 8.0 11.0 0.00 0.00 0.00 68 1007.8
20260502233037 90 312 9.0 15.0 0.00 0.00 0.00 66 1007.7
20260502231525 90 300 10.0 16.0 0.00 0.00 0.00 66 1007.8
20260502230032 91 360 11.0 18.0 0.00 0.00 0.00 64 1007.7
20260502224524 91 315 12.0 19.0 0.00 0.00 0.00 61 1007.2
20260502223036 93 333 11.0 16.0 0.00 0.00 0.00 60 1007.3
20260502221522 93 339 14.0 21.0 0.00 0.00 0.00 59 1007.5
20260502220024 93 329 12.0 20.0 0.00 0.00 0.00 58 1007.5
20260502214523 93 306 12.0 27.0 0.00 0.00 0.00 57 1007.3
20260502213024 94 315 15.0 23.0 0.00 0.00 0.00 55 1007.3
20260502211520 97 296 11.0 23.0 0.00 0.00 0.00 51 1007.3
20260502210020 97 302 15.0 26.0 0.00 0.00 0.00 50 1007.5
20260502204519 98 303 16.0 26.0 0.00 0.00 0.00 47 1007.3
20260502203018 98 355 17.0 26.0 0.00 0.00 0.00 50 1007.1
20260502200016 98 319 12.0 20.0 0.00 0.00 0.00 54 1007.2
20260502194528 99 5 14.0 19.0 0.00 0.00 0.00 54 1007.3
20260502193012 97 31 11.0 19.0 0.00 0.00 0.00 56 1007.5
20260502191510 101 355 8.0 13.0 0.00 0.00 0.00 47 1007.3
20260502190006 102 316 5.0 14.0 0.00 0.00 0.00 46 1007.6